User: anonymous   Login
Location: Unspecified
(0.0000°N, 0.0000°E)
Time: 08:57:30
(UTC+00:00)
Language:

ALMASAT-1 - Orbit

View from above orbital plane
View from above orbital plane
View from above satellite
View from above satellite

Ground track
Ground track

The orbit data is extracted from the following two-line orbital elements,

1 38078U 12006B   17204.94218495 +.00013617 +37414-5 +15369-3 0  9990
2 38078 069.4380 033.3402 0309103 236.8718 120.2478 15.22942714290387
Epoch (UTC): 23 July 2017 22:36:44
Eccentricity: 0.0309103
inclination: 69.4380°
perigee height: 284 km
apogee height: 709 km
right ascension of ascending node: 33.3402°
argument of perigee: 236.8718°
revolutions per day: 15.22942714
mean anomaly at epoch: 120.2478°
orbit number at epoch: 29038

The dashed part of the orbit path shows where the satellite is in the earth's shadow,  

DLR